| time (UTC) | temp F | wind direction | speed MPH | gust MPH | rain 1hr in | rain 24hr in | rain mn in | humidity % | barometer mb |
| 20260507040417 | 57 | 13 | 8.0 | 17.0 | 0.00 | 0.00 | 0.00 | 60 | 1008.9 |
| 20260507035916 | 58 | 11 | 9.0 | 17.0 | 0.00 | 0.00 | 0.00 | 55 | 1008.8 |
| 20260507035416 | 58 | 34 | 6.0 | 14.0 | 0.00 | 0.00 | 0.00 | 52 | 1008.8 |
| 20260507034916 | 58 | 13 | 9.0 | 14.0 | 0.00 | 0.00 | 0.00 | 48 | 1008.6 |
| 20260507034418 | 58 | 9 | 5.0 | 10.0 | 0.00 | 0.00 | 0.00 | 45 | 1008.6 |
| 20260507033915 | 59 | 22 | 4.0 | 10.0 | 0.00 | 0.00 | 0.00 | 45 | 1008.5 |
| 20260507033418 | 59 | 32 | 4.0 | 7.0 | 0.00 | 0.00 | 0.00 | 44 | 1008.2 |
| 20260507032915 | 60 | 47 | 1.0 | 6.0 | 0.00 | 0.00 | 0.00 | 43 | 1007.8 |
| 20260507032410 | 60 | 81 | 3.0 | 7.0 | 0.00 | 0.00 | 0.00 | 43 | 1007.7 |
| 20260507031905 | 60 | 98 | 3.0 | 7.0 | 0.00 | 0.00 | 0.00 | 42 | 1007.6 |
| 20260507031407 | 60 | 104 | 3.0 | 6.0 | 0.00 | 0.00 | 0.00 | 42 | 1007.5 |
| 20260507031354 | 61 | 63 | 3.0 | 6.0 | 0.00 | 0.00 | 0.00 | 41 | 1007.5 |
| 20260507030358 | 61 | 88 | 1.0 | 7.0 | 0.00 | 0.00 | 0.00 | 40 | 1007.6 |
| 20260507025857 | 61 | 96 | 3.0 | 7.0 | 0.00 | 0.00 | 0.00 | 40 | 1007.4 |
| 20260507025349 | 62 | 75 | 3.0 | 8.0 | 0.00 | 0.00 | 0.00 | 40 | 1007.4 |
| 20260507024856 | 62 | 12 | 2.0 | 9.0 | 0.00 | 0.00 | 0.00 | 39 | 1007.5 |
| 20260507024347 | 62 | 77 | 4.0 | 9.0 | 0.00 | 0.00 | 0.00 | 38 | 1007.5 |
| 20260507023842 | 62 | 46 | 1.0 | 9.0 | 0.00 | 0.00 | 0.00 | 37 | 1007.5 |
| 20260507023341 | 63 | 62 | 3.0 | 9.0 | 0.00 | 0.00 | 0.00 | 35 | 1007.5 |
| 20260507022840 | 63 | 32 | 2.0 | 6.0 | 0.00 | 0.00 | 0.00 | 34 | 1007.4 |
| 20260507022343 | 64 | 80 | 2.0 | 6.0 | 0.00 | 0.00 | 0.00 | 34 | 1007.1 |
| 20260507022100 | 64 | 102 | 2.0 | 10.0 | 0.00 | 0.00 | 0.00 | 33 | 1006.8 |
| 20260507021337 | 64 | 105 | 6.0 | 12.0 | 0.00 | 0.00 | 0.00 | 33 | 1006.7 |
| 20260507021056 | 65 | 137 | 7.0 | 12.0 | 0.00 | 0.00 | 0.00 | 32 | 1006.6 |
| 20260507020615 | 65 | 113 | 6.0 | 12.0 | 0.00 | 0.00 | 0.00 | 31 | 1006.6 |
| 20260507015844 | 65 | 128 | 8.0 | 12.0 | 0.00 | 0.00 | 0.00 | 30 | 1006.7 |
| 20260507015333 | 65 | 119 | 8.0 | 13.0 | 0.00 | 0.00 | 0.00 | 29 | 1006.6 |
| 20260507014828 | 66 | 93 | 9.0 | 16.0 | 0.00 | 0.00 | 0.00 | 28 | 1006.7 |
| 20260507014323 | 66 | 103 | 9.0 | 16.0 | 0.00 | 0.00 | 0.00 | 28 | 1006.8 |
| 20260507013820 | 66 | 108 | 9.0 | 14.0 | 0.00 | 0.00 | 0.00 | 28 | 1006.8 |
| 20260507013319 | 66 | 107 | 4.0 | 15.0 | 0.00 | 0.00 | 0.00 | 27 | 1006.9 |
| 20260507012818 | 66 | 80 | 7.0 | 15.0 | 0.00 | 0.00 | 0.00 | 27 | 1006.7 |
| 20260507012319 | 66 | 61 | 9.0 | 15.0 | 0.00 | 0.00 | 0.00 | 28 | 1006.7 |
| 20260507012034 | 66 | 132 | 2.0 | 8.0 | 0.00 | 0.00 | 0.00 | 30 | 1006.8 |
| 20260507011309 | 66 | 75 | 1.0 | 8.0 | 0.00 | 0.00 | 0.00 | 30 | 1006.8 |
| 20260507010811 | 66 | 70 | 1.0 | 6.0 | 0.00 | 0.00 | 0.00 | 29 | 1006.8 |
| 20260507010306 | 67 | 92 | 2.0 | 6.0 | 0.00 | 0.00 | 0.00 | 29 | 1006.8 |
| 20260507005800 | 67 | 49 | 4.0 | 11.0 | 0.00 | 0.00 | 0.00 | 29 | 1006.8 |
| 20260507005257 | 67 | 47 | 3.0 | 11.0 | 0.00 | 0.00 | 0.00 | 28 | 1006.7 |
| 20260507004756 | 67 | 122 | 2.0 | 11.0 | 0.00 | 0.00 | 0.00 | 29 | 1006.8 |
| 20260507004254 | 67 | 101 | 6.0 | 12.0 | 0.00 | 0.00 | 0.00 | 29 | 1006.8 |
| 20260507003748 | 67 | 110 | 4.0 | 12.0 | 0.00 | 0.00 | 0.00 | 28 | 1006.8 |
| 20260507003248 | 67 | 15 | 6.0 | 15.0 | 0.00 | 0.00 | 0.00 | 26 | 1006.9 |
| 20260507002751 | 68 | 44 | 7.0 | 15.0 | 0.00 | 0.00 | 0.00 | 25 | 1006.9 |
| 20260507002248 | 68 | 29 | 4.0 | 12.0 | 0.00 | 0.00 | 0.00 | 25 | 1006.7 |
| 20260507001738 | 68 | 5 | 4.0 | 12.0 | 0.00 | 0.00 | 0.00 | 25 | 1006.6 |
| 20260507001238 | 69 | 54 | 2.0 | 14.0 | 0.00 | 0.00 | 0.00 | 25 | 1006.6 |
| 20260507000733 | 69 | 55 | 6.0 | 14.0 | 0.00 | 0.00 | 0.00 | 24 | 1006.4 |
| 20260507000234 | 69 | 338 | 7.0 | 14.0 | 0.00 | 0.00 | 0.00 | 25 | 1006.3 |
| 20260506235727 | 70 | 83 | 7.0 | 13.0 | 0.00 | 0.00 | 0.00 | 25 | 1006.1 |
| 20260506235226 | 70 | 32 | 6.0 | 13.0 | 0.00 | 0.00 | 0.00 | 24 | 1005.8 |
| 20260506234726 | 70 | 30 | 7.0 | 14.0 | 0.00 | 0.00 | 0.00 | 24 | 1005.8 |
| 20260506234226 | 70 | 350 | 8.0 | 14.0 | 0.00 | 0.00 | 0.00 | 24 | 1005.7 |
| 20260506233718 | 70 | 33 | 8.0 | 13.0 | 0.00 | 0.00 | 0.00 | 25 | 1005.7 |
| 20260506233216 | 70 | 62 | 8.0 | 14.0 | 0.00 | 0.00 | 0.00 | 26 | 1005.8 |
| 20260506232940 | 70 | 27 | 8.0 | 14.0 | 0.00 | 0.00 | 0.00 | 25 | 1005.8 |
| 20260506232215 | 71 | 11 | 7.0 | 13.0 | 0.00 | 0.00 | 0.00 | 25 | 1005.8 |
| 20260506231710 | 71 | 5 | 4.0 | 13.0 | 0.00 | 0.00 | 0.00 | 24 | 1005.8 |
| 20260506231205 | 71 | 28 | 2.0 | 12.0 | 0.00 | 0.00 | 0.00 | 24 | 1005.8 |
| 20260506230925 | 71 | 53 | 6.0 | 13.0 | 0.00 | 0.00 | 0.00 | 24 | 1005.7 |
| 20260506230203 | 72 | 352 | 6.0 | 13.0 | 0.00 | 0.00 | 0.00 | 23 | 1005.6 |
| 20260506225703 | 72 | 352 | 3.0 | 11.0 | 0.00 | 0.00 | 0.00 | 24 | 1005.7 |
| 20260506225206 | 72 | 63 | 5.0 | 11.0 | 0.00 | 0.00 | 0.00 | 23 | 1005.8 |
| 20260506224704 | 72 | 86 | 4.0 | 12.0 | 0.00 | 0.00 | 0.00 | 25 | 1005.8 |
| 20260506224201 | 72 | 41 | 6.0 | 13.0 | 0.00 | 0.00 | 0.00 | 23 | 1005.8 |
| 20260506223700 | 72 | 17 | 8.0 | 15.0 | 0.00 | 0.00 | 0.00 | 25 | 1005.8 |
| 20260506223419 | 72 | 13 | 7.0 | 15.0 | 0.00 | 0.00 | 0.00 | 24 | 1005.9 |
| 20260506222649 | 73 | 40 | 10.0 | 16.0 | 0.00 | 0.00 | 0.00 | 24 | 1005.9 |
| 20260506222147 | 72 | 24 | 7.0 | 16.0 | 0.00 | 0.00 | 0.00 | 25 | 1005.8 |
| 20260506221918 | 72 | 28 | 8.0 | 17.0 | 0.00 | 0.00 | 0.00 | 24 | 1005.9 |
| 20260506221149 | 72 | 47 | 6.0 | 17.0 | 0.00 | 0.00 | 0.00 | 24 | 1006.1 |
| 20260506220644 | 72 | 13 | 10.0 | 19.0 | 0.00 | 0.00 | 0.00 | 24 | 1006.1 |
| 20260506220145 | 73 | 14 | 10.0 | 19.0 | 0.00 | 0.00 | 0.00 | 24 | 1006.1 |
| 20260506215916 | 73 | 30 | 7.0 | 15.0 | 0.00 | 0.00 | 0.00 | 23 | 1006.1 |
| 20260506215144 | 73 | 57 | 8.0 | 16.0 | 0.00 | 0.00 | 0.00 | 23 | 1006.2 |
| 20260506214641 | 74 | 17 | 10.0 | 16.0 | 0.00 | 0.00 | 0.00 | 24 | 1006.2 |
| 20260506214138 | 75 | 5 | 13.0 | 19.0 | 0.00 | 0.00 | 0.00 | 23 | 1006.2 |
| 20260506213641 | 75 | 28 | 7.0 | 19.0 | 0.00 | 0.00 | 0.00 | 25 | 1006.2 |
| 20260506213138 | 75 | 5 | 13.0 | 19.0 | 0.00 | 0.00 | 0.00 | 22 | 1006.3 |
| 20260506212635 | 76 | 44 | 9.0 | 17.0 | 0.00 | 0.00 | 0.00 | 24 | 1006.2 |
| 20260506212133 | 76 | 47 | 9.0 | 15.0 | 0.00 | 0.00 | 0.00 | 22 | 1006.2 |
| 20260506211856 | 76 | 22 | 9.0 | 16.0 | 0.00 | 0.00 | 0.00 | 23 | 1006.1 |
| 20260506211358 | 75 | 351 | 8.0 | 16.0 | 0.00 | 0.00 | 0.00 | 23 | 1006.2 |
| 20260506210625 | 75 | 15 | 9.0 | 16.0 | 0.00 | 0.00 | 0.00 | 24 | 1006.3 |
| 20260506210344 | 75 | 26 | 11.0 | 16.0 | 0.00 | 0.00 | 0.00 | 24 | 1006.3 |
| 20260506205621 | 75 | 35 | 10.0 | 16.0 | 0.00 | 0.00 | 0.00 | 26 | 1006.3 |
| 20260506205114 | 74 | 0 | 9.0 | 14.0 | 0.00 | 0.00 | 0.00 | 24 | 1006.3 |
| 20260506204828 | 73 | 5 | 9.0 | 16.0 | 0.00 | 0.00 | 0.00 | 26 | 1006.4 |
| 20260506204717 | 74 | 19 | 9.0 | 16.0 | 0.00 | 0.00 | 0.00 | 25 | 1006.4 |
| 20260506203613 | 73 | 11 | 5.0 | 15.0 | 0.00 | 0.00 | 0.00 | 25 | 1006.4 |
| 20260506203109 | 73 | 23 | 11.0 | 15.0 | 0.00 | 0.00 | 0.00 | 24 | 1006.4 |
| 20260506202609 | 74 | 20 | 7.0 | 15.0 | 0.00 | 0.00 | 0.00 | 23 | 1006.6 |
| 20260506202113 | 74 | 15 | 9.0 | 15.0 | 0.00 | 0.00 | 0.00 | 24 | 1006.5 |
| 20260506201610 | 74 | 86 | 8.0 | 15.0 | 0.00 | 0.00 | 0.00 | 22 | 1006.6 |
| 20260506201109 | 74 | 22 | 9.0 | 16.0 | 0.00 | 0.00 | 0.00 | 22 | 1006.6 |
| 20260506200605 | 74 | 13 | 10.0 | 16.0 | 0.00 | 0.00 | 0.00 | 23 | 1006.6 |
| 20260506200059 | 74 | 34 | 5.0 | 17.0 | 0.00 | 0.00 | 0.00 | 24 | 1006.7 |
| 20260506195559 | 75 | 5 | 10.0 | 17.0 | 0.00 | 0.00 | 0.00 | 23 | 1006.8 |
| 20260506195317 | 75 | 352 | 12.0 | 16.0 | 0.00 | 0.00 | 0.00 | 25 | 1006.7 |
| 20260506194555 | 75 | 352 | 9.0 | 13.0 | 0.00 | 0.00 | 0.00 | 26 | 1006.9 |
| 20260506194050 | 74 | 17 | 10.0 | 15.0 | 0.00 | 0.00 | 0.00 | 24 | 1006.9 |
| 20260506193548 | 74 | 10 | 11.0 | 15.0 | 0.00 | 0.00 | 0.00 | 23 | 1006.9 |
| 20260506193320 | 74 | 10 | 9.0 | 15.0 | 0.00 | 0.00 | 0.00 | 25 | 1006.9 |
| 20260506192545 | 73 | 0 | 3.0 | 15.0 | 0.00 | 0.00 | 0.00 | 26 | 1006.9 |
| 20260506192044 | 73 | 36 | 6.0 | 13.0 | 0.00 | 0.00 | 0.00 | 22 | 1007.1 |
| 20260506191536 | 73 | 20 | 7.0 | 13.0 | 0.00 | 0.00 | 0.00 | 24 | 1007.1 |
| 20260506191037 | 73 | 0 | 9.0 | 14.0 | 0.00 | 0.00 | 0.00 | 22 | 1007.1 |
| 20260506190539 | 74 | 349 | 6.0 | 14.0 | 0.00 | 0.00 | 0.00 | 23 | 1007.2 |
| 20260506190037 | 74 | 5 | 4.0 | 13.0 | 0.00 | 0.00 | 0.00 | 25 | 1007.3 |
| 20260506185535 | 73 | 17 | 6.0 | 12.0 | 0.00 | 0.00 | 0.00 | 24 | 1007.4 |
| 20260506185040 | 73 | 19 | 6.0 | 12.0 | 0.00 | 0.00 | 0.00 | 25 | 1007.4 |
| 20260506184530 | 73 | 0 | 9.0 | 18.0 | 0.00 | 0.00 | 0.00 | 22 | 1007.4 |
| 20260506184027 | 73 | 343 | 11.0 | 18.0 | 0.00 | 0.00 | 0.00 | 22 | 1007.4 |
| 20260506183527 | 73 | 352 | 7.0 | 12.0 | 0.00 | 0.00 | 0.00 | 24 | 1007.4 |
| 20260506183254 | 73 | 49 | 4.0 | 12.0 | 0.00 | 0.00 | 0.00 | 22 | 1007.5 |
| 20260506182523 | 73 | 21 | 4.0 | 12.0 | 0.00 | 0.00 | 0.00 | 23 | 1007.6 |
| 20260506182022 | 73 | 315 | 4.0 | 12.0 | 0.00 | 0.00 | 0.00 | 25 | 1007.6 |
| 20260506181521 | 73 | 352 | 8.0 | 12.0 | 0.00 | 0.00 | 0.00 | 25 | 1007.7 |
| 20260506181022 | 72 | 5 | 5.0 | 8.0 | 0.00 | 0.00 | 0.00 | 23 | 1007.8 |
| 20260506180512 | 72 | 66 | 1.0 | 8.0 | 0.00 | 0.00 | 0.00 | 23 | 1007.7 |
| 20260506180008 | 72 | 38 | 4.0 | 8.0 | 0.00 | 0.00 | 0.00 | 22 | 1007.8 |
| 20260506175505 | 72 | 115 | 4.0 | 10.0 | 0.00 | 0.00 | 0.00 | 22 | 1007.8 |
| 20260506174959 | 71 | 11 | 5.0 | 10.0 | 0.00 | 0.00 | 0.00 | 26 | 1007.8 |
| 20260506174729 | 71 | 82 | 2.0 | 8.0 | 0.00 | 0.00 | 0.00 | 24 | 1007.9 |
| 20260506173958 | 71 | 113 | 3.0 | 5.0 | 0.00 | 0.00 | 0.00 | 24 | 1008.2 |
| 20260506173714 | 71 | 217 | 1.0 | 8.0 | 0.00 | 0.00 | 0.00 | 22 | 1008.2 |
| 20260506172951 | 70 | 140 | 4.0 | 8.0 | 0.00 | 0.00 | 0.00 | 24 | 1008.3 |
| 20260506172449 | 70 | 115 | 5.0 | 8.0 | 0.00 | 0.00 | 0.00 | 23 | 1008.3 |
| 20260506171951 | 69 | 121 | 4.0 | 8.0 | 0.00 | 0.00 | 0.00 | 24 | 1008.2 |
| 20260506171454 | 69 | 90 | 1.0 | 4.0 | 0.00 | 0.00 | 0.00 | 24 | 1008.3 |
| 20260506170950 | 69 | 5 | 2.0 | 6.0 | 0.00 | 0.00 | 0.00 | 24 | 1008.4 |
| 20260506170445 | 69 | 49 | 2.0 | 6.0 | 0.00 | 0.00 | 0.00 | 23 | 1008.5 |
| 20260506165944 | 69 | 76 | 3.0 | 8.0 | 0.00 | 0.00 | 0.00 | 24 | 1008.5 |
| 20260506165659 | 69 | 304 | 3.0 | 8.0 | 0.00 | 0.00 | 0.00 | 27 | 1008.5 |
| 20260506164937 | 68 | 200 | 1.0 | 5.0 | 0.00 | 0.00 | 0.00 | 23 | 1008.6 |
| 20260506164436 | 67 | 259 | 2.0 | 8.0 | 0.00 | 0.00 | 0.00 | 26 | 1008.7 |
| 20260506164158 | 66 | 153 | 5.0 | 8.0 | 0.00 | 0.00 | 0.00 | 26 | 1008.7 |
| 20260506163701 | 66 | 167 | 1.0 | 5.0 | 0.00 | 0.00 | 0.00 | 26 | 1008.8 |
| 20260506163201 | 66 | 119 | 1.0 | 7.0 | 0.00 | 0.00 | 0.00 | 26 | 1008.8 |
| 20260506162426 | 65 | 189 | 4.0 | 7.0 | 0.00 | 0.00 | 0.00 | 27 | 1008.9 |
| 20260506161925 | 65 | 134 | 3.0 | 7.0 | 0.00 | 0.00 | 0.00 | 28 | 1009.0 |
| 20260506161429 | 64 | 245 | 3.0 | 7.0 | 0.00 | 0.00 | 0.00 | 30 | 1009.0 |
| 20260506161141 | 63 | 194 | 2.0 | 7.0 | 0.00 | 0.00 | 0.00 | 30 | 1009.2 |
| 20260506160645 | 62 | 119 | 2.0 | 5.0 | 0.00 | 0.00 | 0.00 | 30 | 1009.2 |
| 20260506155914 | 62 | 123 | 1.0 | 5.0 | 0.00 | 0.00 | 0.00 | 30 | 1009.3 |
| 20260506155413 | 61 | 246 | 2.0 | 7.0 | 0.00 | 0.00 | 0.00 | 33 | 1009.3 |
| 20260506154907 | 61 | 145 | 2.0 | 7.0 | 0.00 | 0.00 | 0.00 | 33 | 1009.4 |
| 20260506154402 | 60 | 172 | 0.0 | 5.0 | 0.00 | 0.00 | 0.00 | 34 | 1009.4 |
| 20260506153900 | 59 | 180 | 2.0 | 6.0 | 0.00 | 0.00 | 0.00 | 34 | 1009.5 |
| 20260506153357 | 58 | 208 | 2.0 | 6.0 | 0.00 | 0.00 | 0.00 | 35 | 1009.5 |
| 20260506152852 | 57 | 176 | 3.0 | 5.0 | 0.00 | 0.00 | 0.00 | 35 | 1009.6 |
| 20260506152352 | 56 | 185 | 0.0 | 4.0 | 0.00 | 0.00 | 0.00 | 36 | 1009.7 |
| 20260506152130 | 56 | 196 | 0.0 | 4.0 | 0.00 | 0.00 | 0.00 | 36 | 1009.8 |
| 20260506151351 | 55 | 171 | 2.0 | 4.0 | 0.00 | 0.00 | 0.00 | 38 | 1009.8 |
| 20260506150847 | 54 | 234 | 1.0 | 5.0 | 0.00 | 0.00 | 0.00 | 38 | 1009.8 |
| 20260506150621 | 53 | 187 | 2.0 | 5.0 | 0.00 | 0.00 | 0.00 | 39 | 1009.8 |
| 20260506145844 | 52 | 177 | 2.0 | 6.0 | 0.00 | 0.00 | 0.00 | 41 | 1009.9 |
| 20260506145343 | 51 | 182 | 2.0 | 6.0 | 0.00 | 0.00 | 0.00 | 42 | 1009.9 |
| 20260506144843 | 50 | 171 | 4.0 | 6.0 | 0.00 | 0.00 | 0.00 | 44 | 1010.0 |
| 20260506144340 | 50 | 244 | 2.0 | 5.0 | 0.00 | 0.00 | 0.00 | 46 | 1010.2 |
| 20260506143834 | 49 | 230 | 3.0 | 6.0 | 0.00 | 0.00 | 0.00 | 47 | 1010.2 |
| 20260506143600 | 47 | 201 | 4.0 | 6.0 | 0.00 | 0.00 | 0.00 | 48 | 1010.2 |
| 20260506142833 | 46 | 202 | 3.0 | 7.0 | 0.00 | 0.00 | 0.00 | 50 | 1010.3 |
| 20260506142334 | 45 | 201 | 5.0 | 7.0 | 0.00 | 0.00 | 0.00 | 51 | 1010.3 |
| 20260506141833 | 44 | 208 | 4.0 | 8.0 | 0.00 | 0.00 | 0.00 | 54 | 1010.3 |
| 20260506141328 | 42 | 203 | 6.0 | 8.0 | 0.00 | 0.00 | 0.00 | 56 | 1010.3 |
| 20260506140831 | 41 | 217 | 2.0 | 7.0 | 0.00 | 0.00 | 0.00 | 59 | 1010.5 |
| 20260506140558 | 40 | 160 | 3.0 | 7.0 | 0.00 | 0.00 | 0.00 | 60 | 1010.5 |
| 20260506135823 | 39 | 146 | 5.0 | 7.0 | 0.00 | 0.00 | 0.00 | 60 | 1010.5 |
| 20260506135324 | 39 | 171 | 5.0 | 9.0 | 0.00 | 0.00 | 0.00 | 60 | 1010.6 |
| 20260506134823 | 38 | 154 | 6.0 | 9.0 | 0.00 | 0.00 | 0.00 | 60 | 1010.7 |
| 20260506134323 | 38 | 176 | 6.0 | 9.0 | 0.00 | 0.00 | 0.00 | 61 | 1010.7 |
| 20260506133823 | 38 | 185 | 6.0 | 9.0 | 0.00 | 0.00 | 0.00 | 61 | 1010.7 |
| 20260506133321 | 37 | 192 | 7.0 | 10.0 | 0.00 | 0.00 | 0.00 | 62 | 1010.8 |
| 20260506132813 | 36 | 178 | 8.0 | 10.0 | 0.00 | 0.00 | 0.00 | 63 | 1010.9 |
| 20260506132312 | 35 | 188 | 7.0 | 9.0 | 0.00 | 0.00 | 0.00 | 64 | 1011.0 |
| 20260506131806 | 35 | 175 | 3.0 | 7.0 | 0.00 | 0.00 | 0.00 | 64 | 1011.0 |
| 20260506131304 | 35 | 162 | 5.0 | 9.0 | 0.00 | 0.00 | 0.00 | 64 | 1011.0 |
| 20260506130806 | 34 | 149 | 6.0 | 9.0 | 0.00 | 0.00 | 0.00 | 63 | 1010.9 |
| 20260506130302 | 34 | 173 | 6.0 | 8.0 | 0.00 | 0.00 | 0.00 | 64 | 1010.9 |
| 20260506130033 | 34 | 165 | 5.0 | 8.0 | 0.00 | 0.00 | 0.00 | 63 | 1010.9 |
| 20260506125258 | 34 | 150 | 4.0 | 8.0 | 0.00 | 0.00 | 0.00 | 62 | 1010.9 |
| 20260506124754 | 34 | 149 | 6.0 | 7.0 | 0.00 | 0.00 | 0.00 | 61 | 1011.0 |
| 20260506124515 | 34 | 138 | 5.0 | 7.0 | 0.00 | 0.00 | 0.00 | 61 | 1011.0 |
| 20260506123752 | 33 | 150 | 5.0 | 7.0 | 0.00 | 0.00 | 0.00 | 61 | 1011.2 |
| 20260506123244 | 33 | 148 | 4.0 | 7.0 | 0.00 | 0.00 | 0.00 | 60 | 1011.0 |
| 20260506122744 | 33 | 149 | 4.0 | 7.0 | 0.00 | 0.00 | 0.00 | 59 | 1010.9 |
| 20260506122239 | 34 | 190 | 4.0 | 8.0 | 0.00 | 0.00 | 0.00 | 59 | 1010.8 |
| 20260506121739 | 34 | 177 | 6.0 | 9.0 | 0.00 | 0.00 | 0.00 | 59 | 1010.8 |
| 20260506121236 | 34 | 188 | 6.0 | 10.0 | 0.00 | 0.00 | 0.00 | 59 | 1010.8 |
| 20260506120735 | 34 | 189 | 8.0 | 11.0 | 0.00 | 0.00 | 0.00 | 59 | 1011.2 |
| 20260506120229 | 34 | 182 | 9.0 | 13.0 | 0.00 | 0.00 | 0.00 | 59 | 1011.0 |
| 20260506115950 | 33 | 192 | 10.0 | 13.0 | 0.00 | 0.00 | 0.00 | 59 | 1011.0 |
| 20260506115226 | 33 | 193 | 11.0 | 14.0 | 0.00 | 0.00 | 0.00 | 60 | 1011.2 |
| 20260506114723 | 33 | 186 | 10.0 | 14.0 | 0.00 | 0.00 | 0.00 | 60 | 1011.2 |
| 20260506114219 | 33 | 185 | 9.0 | 14.0 | 0.00 | 0.00 | 0.00 | 61 | 1011.4 |
| 20260506113716 | 33 | 183 | 9.0 | 15.0 | 0.00 | 0.00 | 0.00 | 61 | 1011.6 |
| 20260506113218 | 33 | 171 | 10.0 | 15.0 | 0.00 | 0.00 | 0.00 | 62 | 1011.6 |
| 20260506112714 | 33 | 179 | 9.0 | 11.0 | 0.00 | 0.00 | 0.00 | 62 | 1011.6 |
| 20260506112212 | 33 | 155 | 7.0 | 11.0 | 0.00 | 0.00 | 0.00 | 61 | 1011.7 |
| 20260506111710 | 33 | 157 | 9.0 | 11.0 | 0.00 | 0.00 | 0.00 | 61 | 1011.9 |
| 20260506111206 | 33 | 144 | 8.0 | 10.0 | 0.00 | 0.00 | 0.00 | 60 | 1011.9 |
| 20260506110701 | 33 | 158 | 8.0 | 12.0 | 0.00 | 0.00 | 0.00 | 60 | 1011.9 |
| 20260506110157 | 33 | 150 | 8.0 | 12.0 | 0.00 | 0.00 | 0.00 | 61 | 1012.0 |
| 20260506105919 | 33 | 153 | 9.0 | 11.0 | 0.00 | 0.00 | 0.00 | 60 | 1012.1 |
| 20260506105155 | 33 | 158 | 8.0 | 11.0 | 0.00 | 0.00 | 0.00 | 60 | 1012.1 |
| 20260506104652 | 33 | 169 | 8.0 | 11.0 | 0.00 | 0.00 | 0.00 | 60 | 1012.3 |
| 20260506104154 | 33 | 162 | 9.0 | 13.0 | 0.00 | 0.00 | 0.00 | 60 | 1012.4 |
| 20260506103911 | 33 | 155 | 10.0 | 13.0 | 0.00 | 0.00 | 0.00 | 60 | 1012.4 |
| 20260506103415 | 32 | 151 | 11.0 | 14.0 | 0.00 | 0.00 | 0.00 | 61 | 1012.4 |
| 20260506102648 | 32 | 154 | 12.0 | 17.0 | 0.00 | 0.00 | 0.00 | 61 | 1012.5 |
| 20260506102148 | 32 | 157 | 11.0 | 17.0 | 0.00 | 0.00 | 0.00 | 62 | 1012.5 |
| 20260506101647 | 32 | 168 | 10.0 | 16.0 | 0.00 | 0.00 | 0.00 | 62 | 1012.6 |
| 20260506101146 | 32 | 167 | 12.0 | 16.0 | 0.00 | 0.00 | 0.00 | 63 | 1012.6 |
| 20260506100645 | 31 | 167 | 11.0 | 14.0 | 0.00 | 0.00 | 0.00 | 63 | 1012.7 |
| 20260506100146 | 31 | 158 | 11.0 | 14.0 | 0.00 | 0.00 | 0.00 | 64 | 1012.8 |
| 20260506095642 | 31 | 165 | 9.0 | 13.0 | 0.00 | 0.00 | 0.00 | 64 | 1012.9 |
| 20260506095141 | 31 | 175 | 8.0 | 11.0 | 0.00 | 0.00 | 0.00 | 64 | 1013.1 |
| 20260506094637 | 30 | 170 | 8.0 | 13.0 | 0.00 | 0.00 | 0.00 | 65 | 1013.4 |
| 20260506094133 | 30 | 155 | 9.0 | 15.0 | 0.00 | 0.00 | 0.00 | 65 | 1013.3 |
| 20260506093630 | 30 | 172 | 9.0 | 15.0 | 0.00 | 0.00 | 0.00 | 65 | 1013.4 |
| 20260506093127 | 30 | 173 | 7.0 | 12.0 | 0.00 | 0.00 | 0.00 | 65 | 1013.5 |
| 20260506092627 | 30 | 161 | 7.0 | 10.0 | 0.00 | 0.00 | 0.00 | 65 | 1013.7 |
| 20260506092124 | 30 | 157 | 8.0 | 11.0 | 0.00 | 0.00 | 0.00 | 65 | 1013.7 |
| 20260506091621 | 30 | 168 | 8.0 | 15.0 | 0.00 | 0.00 | 0.00 | 66 | 1013.7 |
| 20260506091117 | 29 | 155 | 10.0 | 15.0 | 0.00 | 0.00 | 0.00 | 67 | 1013.7 |
| 20260506090618 | 29 | 178 | 10.0 | 14.0 | 0.00 | 0.00 | 0.00 | 67 | 1013.8 |
| 20260506090340 | 29 | 161 | 8.0 | 11.0 | 0.00 | 0.00 | 0.00 | 67 | 1013.9 |
| 20260506085847 | 29 | 173 | 4.0 | 6.0 | 0.00 | 0.00 | 0.00 | 67 | 1014.0 |
| 20260506085111 | 29 | 173 | 4.0 | 6.0 | 0.00 | 0.00 | 0.00 | 67 | 1014.0 |
| 20260506084609 | 29 | 175 | 5.0 | 7.0 | 0.00 | 0.00 | 0.00 | 67 | 1014.0 |
| 20260506084110 | 29 | 172 | 4.0 | 7.0 | 0.00 | 0.00 | 0.00 | 67 | 1014.1 |
| 20260506083605 | 29 | 176 | 6.0 | 7.0 | 0.00 | 0.00 | 0.00 | 67 | 1014.3 |
| 20260506083107 | 29 | 182 | 6.0 | 9.0 | 0.00 | 0.00 | 0.00 | 67 | 1014.3 |
| 20260506082601 | 29 | 172 | 6.0 | 9.0 | 0.00 | 0.00 | 0.00 | 67 | 1014.4 |
| 20260506082102 | 29 | 174 | 7.0 | 9.0 | 0.00 | 0.00 | 0.00 | 67 | 1014.4 |
| 20260506081556 | 29 | 174 | 7.0 | 9.0 | 0.00 | 0.00 | 0.00 | 67 | 1014.4 |
| 20260506081313 | 29 | 175 | 6.0 | 8.0 | 0.00 | 0.00 | 0.00 | 67 | 1014.5 |
| 20260506080552 | 29 | 175 | 6.0 | 8.0 | 0.00 | 0.00 | 0.00 | 66 | 1014.5 |
| 20260506073300 | 30 | 177 | 4.0 | 6.0 | 0.00 | 0.00 | 0.00 | 63 | 1015.3 |
| 20260506072530 | 30 | 175 | 5.0 | 7.0 | 0.00 | 0.00 | 0.00 | 63 | 1015.3 |
| 20260506072244 | 30 | 163 | 5.0 | 7.0 | 0.00 | 0.00 | 0.00 | 63 | 1015.3 |
| 20260506071524 | 31 | 182 | 6.0 | 7.0 | 0.00 | 0.00 | 0.00 | 62 | 1015.5 |
| 20260506071024 | 31 | 173 | 5.0 | 7.0 | 0.00 | 0.00 | 0.00 | 62 | 1015.5 |
| 20260506070522 | 31 | 167 | 4.0 | 10.0 | 0.00 | 0.00 | 0.00 | 62 | 1015.6 |
| 20260506062504 | 32 | 170 | 6.0 | 9.0 | 0.00 | 0.00 | 0.00 | 60 | 1015.7 |
| 20260506062452 | 32 | 162 | 5.0 | 9.0 | 0.00 | 0.00 | 0.00 | 59 | 1015.7 |
| 20260506061457 | 32 | 173 | 4.0 | 6.0 | 0.00 | 0.00 | 0.00 | 59 | 1015.8 |
| 20260506060956 | 32 | 167 | 3.0 | 7.0 | 0.00 | 0.00 | 0.00 | 59 | 1015.8 |
| 20260506060452 | 32 | 153 | 5.0 | 7.0 | 0.00 | 0.00 | 0.00 | 58 | 1015.9 |
| 20260506060222 | 33 | 161 | 4.0 | 6.0 | 0.00 | 0.00 | 0.00 | 58 | 1016.0 |
| 20260506050922 | 34 | 148 | 5.0 | 7.0 | 0.00 | 0.00 | 0.00 | 56 | 1016.7 |
| 20260506050419 | 35 | 130 | 2.0 | 7.0 | 0.00 | 0.00 | 0.00 | 56 | 1016.7 |
| 20260506044917 | 35 | 148 | 6.0 | 8.0 | 0.00 | 0.00 | 0.00 | 54 | 1016.9 |
| 20260506044412 | 35 | 138 | 5.0 | 8.0 | 0.00 | 0.00 | 0.00 | 54 | 1016.8 |
| 20260506043912 | 36 | 140 | 6.0 | 8.0 | 0.00 | 0.00 | 0.00 | 53 | 1016.7 |
| 20260506043634 | 36 | 144 | 6.0 | 8.0 | 0.00 | 0.00 | 0.00 | 51 | 1016.8 |
| 20260506042911 | 37 | 144 | 4.0 | 9.0 | 0.00 | 0.00 | 0.00 | 49 | 1016.9 |
| 20260506042411 | 37 | 153 | 6.0 | 9.0 | 0.00 | 0.00 | 0.00 | 49 | 1016.8 |
| 20260506042135 | 37 | 148 | 5.0 | 7.0 | 0.00 | 0.00 | 0.00 | 48 | 1016.8 |
| 20260506041848 | 38 | 134 | 5.0 | 9.0 | 0.00 | 0.00 | 0.00 | 47 | 1016.9 |
| 20260506040900 | 38 | 145 | 5.0 | 10.0 | 0.00 | 0.00 | 0.00 | 46 | 1017.0 |